timestamp,wind_dir_avg,wind_spd_avg,wind_spd_max_dir,wind_spd_gust,battery_voltage,lat,long
2023-07-11 00:04:00+00:00,62.0,5.26,55.0,5.86,13.05,47.59359,-54.27349
2023-07-11 00:14:01+00:00,62.0,4.88,62.0,5.84,12.57,47.59359,-54.27349
2023-07-11 00:24:01+00:00,70.0,4.84,69.0,5.82,12.57,47.59359,-54.27349
2023-07-11 00:34:01+00:00,69.0,4.58,60.0,6.07,12.57,47.59359,-54.27349
2023-07-11 00:44:01+00:00,74.0,4.85,69.0,6.64,12.57,47.59359,-54.27349
2023-07-11 00:54:01+00:00,63.0,5.54,66.0,6.41,12.57,47.59359,-54.27349
2023-07-11 01:04:01+00:00,53.0,5.4,50.0,5.93,12.57,47.59359,-54.27349
2023-07-11 01:14:01+00:00,39.0,5.72,36.0,6.41,12.41,47.59359,-54.27349
2023-07-11 01:24:01+00:00,28.0,5.55,34.0,6.39,12.41,47.59359,-54.27349
2023-07-11 01:34:01+00:00,46.0,4.61,50.0,5.04,12.41,47.59359,-54.27349
2023-07-11 01:44:01+00:00,55.0,4.52,54.0,4.84,12.41,47.59359,-54.27349
2023-07-11 01:54:01+00:00,58.0,4.32,59.0,4.6,12.41,47.59359,-54.27349
2023-07-11 02:04:01+00:00,58.0,4.42,58.0,4.87,12.41,47.59359,-54.27349
2023-07-11 02:14:00+00:00,62.0,4.85,63.0,5.55,12.41,47.59359,-54.27349
2023-07-11 02:24:00+00:00,58.0,5.6,59.0,6.65,12.41,47.59359,-54.27349
2023-07-11 02:34:00+00:00,72.0,7.82,76.0,9.5,12.41,47.59359,-54.27349
2023-07-11 02:44:00+00:00,72.0,4.82,70.0,7.59,12.41,47.59359,-54.27349
2023-07-11 02:54:00+00:00,70.0,4.43,68.0,5.11,12.41,47.59359,-54.27349
2023-07-11 03:04:00+00:00,68.0,4.29,63.0,5.22,12.41,47.59359,-54.27349
2023-07-11 03:14:01+00:00,60.0,4.24,63.0,5.0,12.41,47.59359,-54.27349
2023-07-11 03:24:01+00:00,73.0,3.73,71.0,4.49,12.41,47.59359,-54.27349
2023-07-11 03:34:01+00:00,60.0,3.53,56.0,4.3,12.41,47.59359,-54.27349
2023-07-11 03:44:01+00:00,55.0,3.84,51.0,4.31,12.41,47.59359,-54.27349
2023-07-11 03:54:01+00:00,52.0,4.27,49.0,4.71,12.41,47.59359,-54.27349
2023-07-11 04:04:01+00:00,54.0,3.98,54.0,4.34,12.41,47.59359,-54.27349
2023-07-11 04:14:00+00:00,59.0,3.55,54.0,3.8,12.41,47.59359,-54.27349
2023-07-11 04:24:00+00:00,50.0,4.2,51.0,4.48,12.41,47.59359,-54.27349
2023-07-11 04:34:00+00:00,52.0,3.94,57.0,4.35,12.41,47.59359,-54.27349
2023-07-11 04:44:00+00:00,55.0,3.24,54.0,3.7,12.41,47.59359,-54.27349
2023-07-11 04:54:00+00:00,60.0,3.68,59.0,4.07,12.41,47.59359,-54.27349
2023-07-11 05:04:00+00:00,52.0,3.9,46.0,4.22,12.41,47.59359,-54.27349
2023-07-11 05:14:00+00:00,53.0,4.08,53.0,4.36,12.33,47.59359,-54.27349
2023-07-11 05:24:00+00:00,61.0,4.63,63.0,5.0,12.33,47.59359,-54.27349
2023-07-11 05:34:00+00:00,52.0,3.82,41.0,4.21,12.33,47.59359,-54.27349
2023-07-11 05:44:00+00:00,43.0,4.52,41.0,5.19,12.33,47.59359,-54.27349
2023-07-11 05:54:00+00:00,44.0,4.59,40.0,4.87,12.33,47.59359,-54.27349
2023-07-11 06:04:00+00:00,55.0,3.62,55.0,3.63,12.33,47.59359,-54.27349
2023-07-11 06:14:00+00:00,315.0,0.01,55.0,0.0,12.33,47.59359,-54.27349
2023-07-11 06:24:00+00:00,315.0,0.01,55.0,0.0,12.33,47.59359,-54.27349
2023-07-11 06:34:00+00:00,315.0,0.01,55.0,0.0,12.33,47.59359,-54.27349
2023-07-11 06:44:00+00:00,68.0,3.66,62.0,4.24,12.33,47.59359,-54.27349
2023-07-11 06:54:00+00:00,315.0,0.01,70.0,0.0,12.33,47.59359,-54.27349
2023-07-11 07:04:00+00:00,315.0,0.01,59.0,0.0,12.33,47.59359,-54.27349
2023-07-11 07:14:01+00:00,315.0,0.01,59.0,0.0,12.25,47.59359,-54.27349
2023-07-11 07:24:01+00:00,315.0,0.01,59.0,0.0,12.25,47.59359,-54.27349
2023-07-11 07:34:01+00:00,315.0,0.01,59.0,0.0,12.25,47.59359,-54.27349
2023-07-11 07:44:01+00:00,315.0,0.01,59.0,0.0,12.25,47.59359,-54.27349
2023-07-11 07:54:01+00:00,315.0,0.01,59.0,0.0,12.25,47.59359,-54.27349
2023-07-11 08:04:01+00:00,315.0,0.01,59.0,0.0,12.25,47.59359,-54.27349
2023-07-11 08:14:00+00:00,315.0,0.01,59.0,0.0,12.25,47.59359,-54.27349
2023-07-11 08:24:00+00:00,315.0,0.01,59.0,0.0,12.25,47.59359,-54.27349
2023-07-11 08:34:00+00:00,50.0,4.32,49.0,4.78,12.25,47.59359,-54.27349
2023-07-11 08:44:00+00:00,54.0,4.41,53.0,4.73,12.25,47.59359,-54.27349
2023-07-11 08:54:00+00:00,58.0,3.97,55.0,4.26,12.25,47.59359,-54.27349
2023-07-11 09:04:00+00:00,62.0,3.76,60.0,4.35,12.25,47.59359,-54.27349
2023-07-11 09:14:01+00:00,66.0,4.16,64.0,4.59,12.41,47.59359,-54.27349
2023-07-11 09:24:01+00:00,63.0,4.29,57.0,4.96,12.41,47.59359,-54.27349
2023-07-11 09:34:01+00:00,64.0,4.46,61.0,5.0,12.41,47.59359,-54.27349
2023-07-11 09:44:01+00:00,61.0,4.74,62.0,5.29,12.41,47.59359,-54.27349
2023-07-11 09:54:01+00:00,64.0,4.53,61.0,5.23,12.41,47.59359,-54.27349
2023-07-11 10:04:01+00:00,60.0,4.48,63.0,4.86,12.41,47.59359,-54.27349
2023-07-11 10:14:00+00:00,61.0,4.58,60.0,4.9,13.13,47.59359,-54.27349
2023-07-11 10:24:00+00:00,58.0,4.75,55.0,5.31,13.13,47.59359,-54.27349
2023-07-11 10:34:00+00:00,60.0,4.87,61.0,5.51,13.13,47.59359,-54.27349
2023-07-11 10:44:00+00:00,61.0,4.33,59.0,4.87,13.13,47.59359,-54.27349
2023-07-11 10:54:00+00:00,55.0,4.27,56.0,4.72,13.13,47.59359,-54.27349
2023-07-11 11:04:00+00:00,56.0,3.98,56.0,4.62,13.13,47.59359,-54.27349
2023-07-11 11:14:01+00:00,53.0,4.14,56.0,4.66,13.53,47.59359,-54.27349
2023-07-11 11:24:01+00:00,52.0,4.25,49.0,5.04,13.53,47.59359,-54.27349
2023-07-11 11:34:01+00:00,57.0,4.67,57.0,4.69,13.53,47.59359,-54.27349
2023-07-11 11:44:01+00:00,52.0,5.49,52.0,5.83,13.53,47.59359,-54.27349
2023-07-11 11:54:01+00:00,56.0,4.15,59.0,4.44,13.53,47.59359,-54.27349
2023-07-11 12:04:01+00:00,56.0,4.01,63.0,4.41,13.53,47.59359,-54.27349
2023-07-11 12:14:00+00:00,51.0,3.83,36.0,4.86,13.6,47.59359,-54.27349
2023-07-11 12:24:00+00:00,37.0,2.77,33.0,3.97,13.6,47.59359,-54.27349
2023-07-11 12:34:00+00:00,51.0,3.63,52.0,4.16,13.6,47.59359,-54.27349
2023-07-11 12:44:00+00:00,54.0,4.86,53.0,5.33,13.6,47.59359,-54.27349
2023-07-11 12:54:00+00:00,57.0,5.47,57.0,6.0,13.6,47.59359,-54.27349
2023-07-11 13:04:00+00:00,52.0,5.27,51.0,5.75,13.6,47.59359,-54.27349
2023-07-11 13:14:00+00:00,52.0,5.2,51.0,5.58,13.6,47.59359,-54.27349
2023-07-11 13:24:00+00:00,49.0,4.19,50.0,4.68,13.6,47.59359,-54.27349
2023-07-11 13:34:00+00:00,55.0,3.82,50.0,4.38,13.6,47.59359,-54.27349
2023-07-11 13:44:00+00:00,60.0,3.59,58.0,4.06,13.6,47.59359,-54.27349
2023-07-11 13:54:00+00:00,66.0,5.83,68.0,6.85,13.6,47.59359,-54.27349
2023-07-11 14:04:00+00:00,68.0,5.74,69.0,7.18,13.6,47.59359,-54.27349
2023-07-11 14:14:00+00:00,71.0,6.59,68.0,7.23,14.24,47.59359,-54.27349
2023-07-11 14:24:00+00:00,68.0,5.52,67.0,7.15,14.24,47.59359,-54.27349
2023-07-11 14:34:00+00:00,68.0,5.3,67.0,6.81,14.24,47.59359,-54.27349
2023-07-11 14:44:00+00:00,73.0,4.1,54.0,5.63,14.24,47.59359,-54.27349
2023-07-11 14:54:00+00:00,78.0,2.93,90.0,5.74,14.24,47.59359,-54.27349
2023-07-11 15:04:00+00:00,76.0,3.57,59.0,5.22,14.24,47.59359,-54.27349
2023-07-11 15:14:01+00:00,85.0,4.21,98.0,6.45,14.32,47.59359,-54.27349
2023-07-11 15:24:01+00:00,89.0,3.17,71.0,4.78,14.32,47.59359,-54.27349
2023-07-11 15:34:01+00:00,88.0,3.32,90.0,5.52,14.32,47.59359,-54.27349
2023-07-11 15:44:01+00:00,86.0,3.56,75.0,4.91,14.32,47.59359,-54.27349
2023-07-11 15:54:01+00:00,79.0,3.42,103.0,5.14,14.32,47.59359,-54.27349
2023-07-11 16:04:01+00:00,87.0,2.34,89.0,3.79,14.32,47.59359,-54.27349
2023-07-11 16:14:01+00:00,86.0,2.39,92.0,3.65,13.6,47.59359,-54.27349
2023-07-11 16:24:01+00:00,84.0,2.18,104.0,3.91,13.6,47.59359,-54.27349
2023-07-11 16:34:01+00:00,77.0,1.81,80.0,3.72,13.6,47.59359,-54.27349
2023-07-11 16:44:01+00:00,108.0,2.65,118.0,4.0,13.6,47.59359,-54.27349
2023-07-11 16:54:01+00:00,107.0,2.23,135.0,4.18,13.6,47.59359,-54.27349
2023-07-11 17:04:01+00:00,118.0,4.29,127.0,5.36,13.6,47.59359,-54.27349
2023-07-11 17:14:00+00:00,130.0,4.1,128.0,4.89,14.32,47.59359,-54.27349
2023-07-11 17:24:00+00:00,117.0,3.29,112.0,5.35,14.32,47.59359,-54.27349
2023-07-11 17:34:00+00:00,95.0,2.35,65.0,3.77,14.32,47.59359,-54.27349
2023-07-11 17:44:00+00:00,93.0,1.52,84.0,4.43,14.32,47.59359,-54.27349
2023-07-11 17:54:00+00:00,104.0,2.42,112.0,3.8,14.32,47.59359,-54.27349
2023-07-11 18:04:00+00:00,94.0,2.08,84.0,3.31,14.32,47.59359,-54.27349
2023-07-11 18:14:01+00:00,85.0,2.3,86.0,3.37,13.68,47.59359,-54.27349
2023-07-11 18:24:01+00:00,95.0,2.83,111.0,5.13,13.68,47.59359,-54.27349
2023-07-11 18:34:01+00:00,93.0,2.32,93.0,4.19,13.68,47.59359,-54.27349
2023-07-11 18:44:01+00:00,103.0,2.63,107.0,3.9,13.68,47.59359,-54.27349
2023-07-11 18:54:01+00:00,82.0,3.14,73.0,5.19,13.68,47.59359,-54.27349
2023-07-11 19:04:01+00:00,108.0,2.85,120.0,4.28,13.68,47.59359,-54.27349
2023-07-11 19:14:01+00:00,99.0,2.04,89.0,3.72,13.68,47.59359,-54.27349
2023-07-11 19:24:01+00:00,93.0,1.61,121.0,3.27,13.68,47.59359,-54.27349
2023-07-11 19:34:01+00:00,81.0,2.79,116.0,4.45,13.68,47.59359,-54.27349
2023-07-11 19:44:01+00:00,83.0,2.44,64.0,3.89,13.68,47.59359,-54.27349
2023-07-11 19:54:01+00:00,88.0,1.96,68.0,2.65,13.68,47.59359,-54.27349
2023-07-11 20:04:01+00:00,76.0,1.68,76.0,2.33,13.68,47.59359,-54.27349
2023-07-11 20:14:01+00:00,103.0,1.9,123.0,3.87,13.6,47.59359,-54.27349
2023-07-11 20:24:01+00:00,144.0,4.07,145.0,4.74,13.6,47.59359,-54.27349
2023-07-11 20:34:01+00:00,150.0,5.1,153.0,5.71,13.6,47.59359,-54.27349
2023-07-11 20:44:01+00:00,155.0,5.28,156.0,6.38,13.6,47.59359,-54.27349
2023-07-11 20:54:01+00:00,154.0,4.8,156.0,5.31,13.6,47.59359,-54.27349
2023-07-11 21:04:01+00:00,150.0,4.35,156.0,4.7,13.6,47.59359,-54.27349
2023-07-11 21:14:01+00:00,148.0,5.05,148.0,5.59,13.53,47.59359,-54.27349
2023-07-11 21:24:01+00:00,151.0,5.77,152.0,5.95,13.53,47.59359,-54.27349
2023-07-11 21:34:01+00:00,149.0,4.6,148.0,5.78,13.53,47.59359,-54.27349
2023-07-11 21:44:01+00:00,157.0,4.23,154.0,4.66,13.53,47.59359,-54.27349
2023-07-11 21:54:01+00:00,168.0,2.73,170.0,2.99,13.53,47.59359,-54.27349
2023-07-11 22:04:01+00:00,157.0,2.76,158.0,2.97,13.53,47.59359,-54.27349
2023-07-11 22:14:00+00:00,160.0,3.01,164.0,3.29,13.13,47.59359,-54.27349
2023-07-11 22:24:00+00:00,162.0,3.3,164.0,3.61,13.13,47.59359,-54.27349
2023-07-11 22:34:00+00:00,168.0,3.65,162.0,4.44,13.13,47.59359,-54.27349
2023-07-11 22:44:00+00:00,170.0,3.32,174.0,3.58,13.13,47.59359,-54.27349
2023-07-11 22:54:00+00:00,168.0,4.5,167.0,4.79,13.13,47.59359,-54.27349
2023-07-11 23:04:00+00:00,168.0,4.95,169.0,5.27,13.13,47.59359,-54.27349
2023-07-11 23:14:00+00:00,175.0,4.45,175.0,4.94,12.65,47.59359,-54.27349
2023-07-11 23:24:00+00:00,195.0,3.37,192.0,3.75,12.65,47.59359,-54.27349
2023-07-11 23:34:00+00:00,211.0,4.07,212.0,4.41,12.65,47.59359,-54.27349
2023-07-11 23:44:00+00:00,215.0,4.07,216.0,4.55,12.65,47.59359,-54.27349
2023-07-11 23:54:00+00:00,225.0,3.81,226.0,4.47,12.65,47.59359,-54.27349
